Probability
0 0 0 0 0 0 0 0 3 0 0 0 3 0 0 0 0 0 3 10 13 10 16 16 13 16 19 23 19 16 16 10 6 13 13 13 13 13 19 19 16 13 19
0 0 0 0 0 0 0 0 0 0 0 0 0 0 0 0 0 0 3 3 13 13 13 13 13 16 23 16 16 16 23 16 10 16 13 13 13 16 19 10 19 23 19
0 0 0 0 0 0 0 0 0 0 0 0 0 0 0 0 0 0 0 3 3 13 13 10 13 13 16 13 10 13 13 13 13 13 13 13 13 13 16 16 16 19 19
0 0 0 0 0 0 0 0 0 0 0 0 0 0 0 0 0 0 0 3 3 3 3 6 10 10 6 10 10 10 10 10 13 13 13 13 16 19 16 19 13 19 13
0 0 0 0 0 0 0 0 0 0 0 0 0 0 0 0 0 0 0 0 3 3 0 3 10 10 6 6 6 6 10 10 10 10 10 10 16 16 16 16 10 6 10
0 0 0 0 0 0 0 0 0 0 0 0 0 0 0 0 0 0 0 0 0 0 0 0 0 3 3 6 6 6 6 3 3 6 6 10 13 16 13 13 10 6 10
0 0 0 0 0 0 0 0 0 0 0 0 0 0 0 0 0 0 0 0 0 0 0 0 0 0 3 3 3 3 3 3 3 3 3 3 10 13 13 13 6 6 6
0 0 0 0 0 0 0 0 0 0 0 0 0 0 0 0 0 0 0 0 0 0 0 0 0 0 0 0 0 3 3 3 3 3 3 3 0 13 13 10 6 6 10
0 0 0 0 0 0 0 0 3 0 0 0 0 0 0 0 0 0 0 0 0 0 0 0 0 0 0 0 0 0 3 3 3 3 3 3 0 3 3 6 3 3 3
0 0 0 0 0 0 0 0 0 0 0 0 0 0 0 0 0 0 0 0 0 0 0 0 0 0 0 0 0 0 0 0 6 6 3 3 3 6 3 10 3 3 3
0 0 0 0 0 0 0 0 0 0 0 0 0 0 0 0 0 0 0 0 0 0 0 0 0 0 0 0 0 0 0 0 0 3 3 0 3 6 10 6 3 3 0
0 0 0 0 0 0 0 0 0 0 0 0 0 0 0 0 0 0 0 0 0 0 0 0 0 0 0 0 0 0 0 0 0 0 0 0 3 6 6 6 3 0 0
0 0 0 0 0 0 0 0 0 0 0 0 0 0 0 0 0 0 0 0 0 0 0 0 0 0 0 0 0 0 0 0 0 0 0 0 3 3 3 3 0 0 0
0 0 0 0 0 0 0 0 0 0 0 0 0 0 0 0 0 0 0 0 0 0 0 0 0 0 0 0 0 0 0 0 0 0 0 0 0 0 0 3 3 3 3
0 0 0 0 0 0 0 0 0 0 0 0 0 0 0 0 0 0 0 0 0 0 0 0 0 0 0 0 0 0 0 0 0 0 0 0 0 0 0 0 0 0 0
0 0 0 0 0 0 0 0 0 0 0 0 0 0 0 0 0 0 0 0 0 0 0 0 0 0 0 0 0 0 0 0 0 0 0 0 0 0 0 0 0 0 0
3 0 0 0 0 0 0 0 0 0 0 0 0 0 0 3 3 0 0 0 0 0 0 0 0 0 0 0 0 0 0 0 0 0 0 0 0 0 0 0 0 0 0
3 0 0 0 0 0 0 0 0 0 0 0 0 0 0 0 0 0 0 0 0 0 0 0 0 0 0 0 0 0 0 0 0 0 0 0 0 0 0 0 0 0 0
3 0 0 0 0 0 0 0 0 0 0 0 0 0 0 0 0 0 0 0 0 0 0 0 0 0 0 0 0 0 0 0 0 0 0 0 0 0 0 0 0 0 0
0 0 0 0 0 0 0 0 0 0 0 0 0 0 0 0 0 0 0 0 0 0 0 0 0 0 0 0 0 0 0 0 0 0 0 0 0 0 0 0 0 0 0
0 0 0 0 0 0 0 0 0 0 0 0 0 0 0 0 0 0 0 0 0 0 0 0 0 0 0 0 0 0 0 0 0 0 0 0 0 0 0 0 0 0 0
0 0 0 0 0 0 0 0 0 0 0 0 0 0 0 0 0 0 0 0 0 0 0 0 0 0 0 0 0 0 0 0 0 0 0 0 0 0 0 0 0 0 0
0 0 0 0 0 0 0 0 0 0 0 0 0 0 0 0 0 0 0 0 0 0 0 0 0 0 0 0 0 0 0 0 0 0 0 0 0 0 0 0 0 0 0
0 0 0 3 0 0 0 0 0 0 0 0 0 0 0 0 0 0 0 0 0 0 0 0 0 0 0 0 0 0 0 0 0 0 0 0 0 0 0 0 0 0 0
0 3 3 3 0 0 0 0 0 0 0 0 0 0 0 0 0 0 0 0 0 0 0 0 0 0 0 0 0 0 0 0 0 0 0 0 0 0 0 0 0 0 0
3 3 3 3 0 0 0 0 0 0 0 0 0 0 0 0 0 0 0 0 0 0 0 0 0 0 0 0 0 0 0 0 0 0 0 0 0 0 0 0 0 0 0
Height
5883 5882 5882 5881 5880 5879 5878 5877 5876 5876 5875 5875 5874 5874 5874 5873 5873 5873 5873 5872 5872 5871 5871 5871 5871 5871 5870 5870 5871 5870 5870 5870 5871 5871 5871 5872 5872 5873 5874 5874 5875 5875 5876
5882 5882 5881 5880 5879 5878 5877 5877 5876 5875 5875 5874 5874 5873 5873 5872 5872 5872 5871 5871 5871 5870 5870 5869 5869 5869 5869 5868 5868 5868 5868 5868 5868 5868 5868 5868 5869 5869 5870 5871 5872 5872 5873
5881 5881 5880 5879 5878 5878 5877 5876 5875 5875 5874 5874 5873 5872 5872 5871 5871 5871 5870 5870 5869 5869 5868 5868 5867 5867 5867 5867 5866 5866 5866 5866 5866 5865 5865 5864 5864 5865 5866 5867 5868 5869 5870
5880 5880 5879 5879 5878 5877 5876 5876 5875 5874 5874 5873 5872 5872 5871 5870 5870 5869 5869 5868 5868 5867 5867 5866 5866 5865 5865 5864 5864 5864 5864 5863 5863 5862 5860 5859 5858 5859 5862 5864 5865 5865 5866
5879 5879 5878 5878 5877 5876 5875 5875 5874 5873 5873 5872 5872 5871 5870 5870 5869 5868 5867 5867 5866 5866 5865 5865 5864 5863 5863 5863 5862 5862 5861 5861 5860 5858 5856 5854 5854 5855 5858 5860 5861 5862 5863
5878 5878 5877 5877 5876 5875 5874 5874 5873 5872 5872 5871 5871 5870 5870 5869 5868 5867 5866 5865 5865 5864 5864 5863 5862 5862 5861 5861 5860 5859 5858 5858 5857 5855 5854 5852 5852 5853 5855 5856 5858 5859 5859
5877 5877 5876 5876 5875 5874 5873 5873 5872 5871 5871 5870 5870 5869 5868 5868 5866 5865 5864 5864 5863 5862 5862 5861 5861 5860 5859 5859 5858 5857 5856 5855 5854 5853 5852 5851 5851 5851 5852 5853 5854 5855 5856
5875 5875 5875 5874 5874 5873 5872 5872 5871 5870 5870 5869 5868 5868 5867 5867 5865 5864 5863 5862 5861 5861 5860 5859 5859 5858 5857 5856 5855 5854 5853 5852 5852 5851 5850 5849 5849 5849 5849 5850 5850 5851 5852
5874 5873 5873 5873 5872 5872 5871 5870 5869 5869 5868 5867 5867 5866 5865 5865 5863 5862 5861 5860 5859 5859 5858 5857 5856 5856 5855 5854 5853 5851 5850 5849 5848 5847 5847 5846 5846 5845 5845 5846 5847 5847 5848
5872 5872 5871 5871 5871 5870 5869 5869 5868 5867 5867 5866 5865 5864 5864 5862 5862 5861 5860 5859 5858 5857 5856 5855 5854 5853 5852 5851 5850 5848 5847 5846 5845 5844 5843 5843 5842 5842 5842 5842 5843 5843 5844
5870 5870 5869 5869 5869 5868 5868 5867 5866 5866 5865 5864 5863 5862 5861 5860 5860 5859 5858 5857 5856 5855 5854 5853 5852 5850 5849 5848 5847 5845 5844 5842 5841 5840 5839 5839 5839 5839 5839 5839 5839 5839 5839
5867 5867 5867 5867 5867 5866 5866 5865 5864 5864 5863 5862 5861 5860 5859 5858 5857 5856 5855 5854 5853 5852 5851 5850 5849 5848 5846 5845 5844 5842 5840 5839 5838 5837 5836 5836 5835 5835 5835 5835 5835 5835 5835
5865 5865 5864 5864 5864 5864 5863 5863 5862 5861 5860 5860 5859 5858 5857 5856 5855 5854 5853 5851 5850 5849 5848 5847 5846 5845 5843 5842 5840 5838 5837 5835 5834 5833 5833 5832 5832 5831 5831 5831 5830 5830 5830
5862 5862 5862 5861 5861 5861 5860 5860 5859 5859 5858 5857 5856 5855 5854 5853 5852 5851 5850 5849 5847 5846 5845 5844 5843 5841 5840 5838 5837 5835 5834 5832 5831 5830 5829 5828 5827 5827 5826 5826 5825 5825 5824
5859 5859 5859 5859 5858 5858 5857 5857 5856 5856 5855 5854 5853 5852 5851 5850 5849 5847 5846 5845 5845 5843 5842 5840 5839 5838 5836 5835 5833 5831 5830 5828 5827 5826 5825 5824 5823 5822 5821 5821 5820 5819 5818
5856 5856 5856 5855 5855 5855 5854 5854 5853 5852 5851 5851 5850 5849 5848 5847 5845 5844 5843 5842 5841 5840 5838 5837 5835 5834 5832 5831 5829 5828 5826 5825 5823 5821 5820 5819 5818 5817 5816 5815 5814 5813 5812
5853 5853 5852 5852 5852 5851 5851 5850 5849 5848 5848 5847 5846 5845 5844 5843 5842 5841 5839 5838 5837 5835 5834 5833 5831 5830 5828 5826 5825 5823 5822 5820 5818 5817 5815 5814 5812 5811 5810 5808 5807 5806 5805
5849 5849 5849 5848 5848 5848 5847 5846 5846 5845 5844 5843 5842 5841 5840 5839 5838 5836 5835 5834 5832 5831 5830 5828 5827 5825 5823 5822 5820 5818 5817 5815 5813 5811 5810 5808 5806 5805 5803 5802 5800 5799 5797
5846 5845 5845 5845 5844 5844 5843 5842 5842 5841 5840 5839 5838 5837 5836 5834 5833 5832 5831 5829 5828 5826 5825 5823 5821 5820 5818 5816 5814 5813 5811 5809 5807 5805 5803 5802 5800 5798 5796 5794 5793 5791 5789
5841 5841 5841 5841 5840 5840 5839 5838 5837 5836 5835 5834 5833 5832 5831 5830 5828 5827 5826 5824 5822 5821 5819 5817 5816 5814 5812 5810 5808 5807 5805 5803 5801 5799 5797 5795 5793 5791 5789 5787 5785 5783 5781
5837 5837 5836 5836 5836 5835 5834 5833 5832 5831 5830 5829 5828 5827 5826 5824 5823 5822 5820 5818 5817 5815 5813 5811 5810 5808 5806 5804 5802 5800 5798 5796 5794 5791 5790 5788 5786 5783 5781 5778 5776 5774 5772
5832 5832 5832 5831 5831 5830 5829 5828 5827 5827 5825 5824 5823 5822 5820 5819 5817 5816 5814 5812 5810 5808 5807 5805 5803 5801 5799 5796 5794 5792 5790 5788 5786 5784 5781 5779 5777 5775 5772 5769 5766 5764 5761
5828 5827 5827 5826 5826 5825 5824 5823 5822 5821 5820 5819 5817 5816 5814 5813 5811 5809 5807 5805 5803 5801 5799 5797 5795 5793 5791 5789 5786 5784 5782 5780 5777 5775 5772 5770 5767 5765 5762 5759 5756 5753 5751
5823 5822 5822 5821 5820 5819 5818 5817 5816 5815 5814 5812 5811 5810 5808 5806 5804 5802 5800 5798 5796 5794 5791 5789 5787 5784 5782 5779 5777 5775 5772 5770 5768 5765 5762 5760 5757 5754 5751 5748 5745 5742 5739
5817 5817 5816 5816 5815 5814 5813 5811 5810 5809 5808 5806 5804 5803 5801 5799 5797 5795 5793 5791 5788 5786 5783 5780 5778 5775 5772 5770 5767 5765 5762 5759 5757 5755 5751 5748 5745 5742 5740 5736 5733 5729 5726
5812 5812 5811 5810 5809 5808 5807 5805 5804 5803 5801 5800 5798 5796 5793 5791 5789 5786 5784 5782 5780 5777 5774 5772 5769 5766 5763 5760 5757 5754 5751 5748 5745 5743 5739 5736 5733 5729 5727 5724 5719 5715 5712
Wind_Speed
7 7 7 7 6 6 5 5 5 5 5 4 4 4 3 4 5 5 6 7 8 8 9 9 9 10 10 10 10 10 10 11 11 11 12 12 12 13 13 13 13 13 13
7 7 7 7 6 6 6 6 5 6 5 5 5 5 5 5 5 6 7 8 8 8 8 9 9 10 10 10 10 10 11 11 12 12 13 13 14 14 14 14 14 13 14
6 6 6 7 6 6 6 6 5 6 6 5 5 5 5 6 6 7 8 8 8 8 8 9 9 10 10 11 10 10 11 11 12 13 14 15 15 16 15 14 14 14 14
7 7 7 7 7 6 6 6 6 6 6 6 6 6 6 6 7 7 8 8 8 8 8 8 9 10 10 11 11 11 12 12 13 13 14 15 15 15 15 15 15 15 14
7 7 7 7 7 7 7 6 6 6 6 6 6 6 7 7 7 8 8 8 9 9 9 9 9 10 10 10 11 11 12 12 13 13 14 14 14 14 15 15 15 15 15
7 7 7 7 7 7 7 6 6 6 6 7 7 7 8 8 8 9 9 9 9 9 9 9 10 10 11 11 11 11 12 12 13 13 13 13 13 14 14 14 15 15 16
7 7 7 7 7 7 7 7 7 7 7 7 8 8 8 8 9 9 10 9 9 9 10 10 10 11 11 12 12 11 12 13 13 13 13 13 13 13 14 15 15 15 16
7 8 8 7 8 8 8 8 8 8 8 8 8 8 9 9 10 10 10 9 9 9 10 10 11 11 11 11 12 12 12 13 14 14 14 14 14 15 15 16 16 16 16
8 8 8 8 8 8 8 8 8 8 9 9 9 9 9 10 10 10 10 10 10 10 10 10 11 11 12 12 12 12 13 14 15 15 15 15 15 15 15 15 16 16 17
8 8 9 9 9 9 9 9 9 9 9 9 10 10 10 10 11 10 10 10 10 10 11 11 12 12 12 13 13 13 14 15 15 16 16 16 16 16 16 16 16 17 18
9 9 10 10 10 10 10 10 10 10 10 10 10 11 11 11 11 11 12 12 12 12 12 12 12 13 13 14 13 13 14 15 15 15 15 16 16 16 16 17 17 17 18
10 10 11 11 11 11 11 11 11 11 11 11 11 12 12 12 12 13 13 13 13 13 13 13 13 13 14 14 14 14 13 14 15 14 14 15 16 17 17 17 18 18 19
11 11 11 11 11 11 11 12 12 12 12 12 13 13 13 13 13 13 13 13 13 13 13 13 13 14 14 15 15 15 15 15 15 15 15 16 16 17 17 18 18 19 20
11 11 12 12 12 12 12 12 12 13 13 14 14 14 13 13 14 14 14 14 13 13 13 14 14 14 15 15 16 16 16 16 16 16 16 17 17 17 18 19 19 20 21
12 12 12 13 13 13 12 13 13 14 14 14 14 14 14 14 14 14 14 14 14 14 14 15 15 15 16 16 16 16 17 17 17 17 17 18 18 19 20 20 21 22 22
13 13 13 13 13 13 13 14 14 14 15 15 15 15 15 15 15 15 16 16 16 15 15 15 16 17 17 17 17 17 17 18 18 18 18 19 20 20 21 22 23 23 24
14 14 14 14 14 14 14 14 15 15 15 15 15 16 16 16 16 16 17 17 17 17 17 17 17 18 18 18 18 18 19 19 20 21 20 21 21 22 23 23 24 25 25
14 14 15 15 15 15 15 15 16 16 17 17 17 17 17 17 17 17 18 18 18 19 19 19 19 20 20 20 20 21 21 21 22 22 23 23 23 24 24 25 25 26 27
15 15 16 16 16 16 17 17 17 18 18 18 18 18 18 18 18 19 19 19 20 20 20 20 20 21 22 22 23 23 23 23 24 24 25 25 25 25 26 26 27 28 29
16 16 17 17 17 18 18 18 18 19 19 19 18 18 18 19 19 19 20 20 21 22 22 22 23 23 23 24 24 24 24 24 25 26 26 27 27 27 27 28 29 29 30
17 17 18 18 18 19 19 19 20 20 19 19 19 19 19 20 21 21 21 22 23 23 24 24 24 25 25 25 25 26 26 26 26 27 27 28 28 29 30 31 32 32 33
18 18 18 19 19 20 20 20 21 21 21 21 21 21 22 23 23 23 24 24 25 25 25 26 27 27 27 26 27 27 28 28 28 28 30 30 30 31 32 33 34 35 35
18 19 19 20 20 20 21 21 22 22 22 22 23 23 24 24 24 25 26 26 27 27 28 28 28 28 29 29 29 29 30 30 30 30 32 32 33 34 34 35 36 36 37
18 19 19 19 20 21 22 22 23 23 23 23 24 24 24 25 25 26 26 27 28 29 29 29 30 30 31 32 32 32 33 33 33 33 34 35 36 37 37 37 38 39 40
19 19 20 20 21 21 22 23 24 24 25 25 25 26 26 26 27 27 28 28 29 30 31 31 31 32 33 33 34 35 36 36 36 36 37 38 39 39 39 40 41 42 43
20 21 21 21 22 22 23 24 25 26 26 26 26 26 27 28 29 29 29 30 31 31 32 32 33 33 34 35 36 37 38 39 39 39 40 41 41 41 41 42 44 45 46
Wind_Direction
324 332 338 340 341 336 333 335 336 335 335 330 321 321 314 303 304 301 296 295 295 290 287 287 284 282 279 274 275 275 272 269 268 267 265 262 263 264 264 263 264 267 266
322 328 335 339 339 339 334 335 336 335 332 326 323 321 317 311 307 306 301 296 293 291 291 290 289 285 279 276 277 276 275 273 271 270 269 268 267 265 265 264 263 265 264
314 319 323 331 334 335 331 328 327 329 326 324 323 319 319 316 309 306 303 298 295 293 291 291 293 290 286 280 276 273 275 276 275 274 274 273 270 268 265 264 265 264 261
306 309 312 320 325 328 326 323 324 323 322 325 327 325 322 317 312 309 305 301 298 296 295 295 294 292 289 285 279 274 275 277 279 281 281 276 271 268 264 265 265 265 263
305 308 311 314 319 323 322 320 324 326 324 326 329 330 328 321 317 318 315 308 301 298 297 297 299 297 296 293 283 279 280 282 284 288 286 279 273 267 263 264 264 265 266
304 311 310 311 314 318 318 318 322 321 318 319 321 322 324 322 320 320 316 311 306 303 300 298 299 297 297 295 289 285 284 287 288 288 286 282 275 269 265 264 264 265 265
297 304 308 308 310 311 310 312 314 315 314 313 315 316 317 317 319 318 314 311 309 306 303 301 298 297 295 292 290 290 290 289 288 288 285 282 279 275 271 268 268 266 266
286 294 299 304 309 308 306 308 309 309 311 313 313 313 314 316 317 317 316 312 311 309 309 305 301 301 298 295 291 291 291 292 289 286 283 283 281 278 274 272 271 270 269
280 285 290 295 301 305 305 307 309 309 309 311 311 311 311 312 313 312 310 309 306 306 307 308 307 305 303 299 293 293 292 292 292 291 288 285 281 279 272 270 272 271 271
278 281 286 291 296 301 303 305 308 310 311 314 314 314 313 312 312 312 310 308 305 304 303 302 302 302 302 301 297 295 291 289 291 291 290 287 287 283 279 274 272 270 271
275 278 283 287 292 296 300 305 307 308 309 311 311 311 312 312 312 310 309 307 305 304 303 302 301 302 303 301 301 300 295 292 289 290 289 286 286 284 281 277 276 275 274
276 279 281 285 289 291 294 298 301 302 304 307 308 309 309 309 308 309 309 308 307 306 305 304 304 303 303 303 301 302 300 296 293 291 288 287 285 283 281 279 278 277 277
278 281 284 286 289 290 292 295 297 299 302 303 305 307 306 306 306 307 307 308 310 309 307 306 305 305 305 305 305 303 302 300 297 293 288 287 285 284 282 281 279 278 277
279 282 286 289 291 291 292 293 294 296 298 300 301 303 304 304 304 305 306 306 307 308 308 306 306 305 304 304 305 305 305 304 300 297 292 289 287 285 283 282 283 282 280
279 282 287 291 291 291 291 291 292 295 296 298 298 298 299 300 301 302 304 304 304 305 307 307 306 306 306 306 305 304 303 303 302 300 297 294 291 288 286 285 284 284 283
280 281 284 290 291 290 290 290 292 294 295 295 295 296 296 297 298 300 301 301 301 301 302 303 305 305 305 305 305 304 303 303 302 301 299 296 293 290 289 287 285 284 283
281 282 282 285 286 287 290 292 292 293 295 295 295 295 296 296 297 298 299 300 301 301 300 301 301 301 302 302 303 303 302 301 301 300 298 297 294 292 291 289 288 286 285
280 280 281 282 284 286 289 291 293 292 293 293 293 293 295 295 297 298 298 299 300 300 299 299 299 299 299 300 300 300 299 299 298 298 297 296 295 293 292 291 289 288 288
279 279 280 282 284 286 288 290 292 292 293 293 293 293 293 294 294 296 297 298 298 298 299 299 300 298 298 298 298 298 297 297 297 296 295 295 295 294 293 292 291 290 290
279 280 281 282 283 285 287 289 292 293 293 294 293 293 294 295 294 295 296 297 297 297 298 298 299 298 297 297 297 297 296 296 295 293 293 293 294 293 293 292 291 291 290
277 279 281 283 284 285 286 288 290 291 291 292 292 292 293 294 294 295 296 296 297 297 296 296 297 297 297 297 296 296 296 295 295 294 293 293 293 293 292 291 290 289 289
278 279 281 282 284 285 285 286 290 291 291 291 291 291 292 292 293 294 294 295 296 296 297 297 297 296 296 296 296 296 296 295 295 294 294 293 293 292 292 291 290 289 289
280 280 281 282 284 285 285 286 288 290 290 289 290 291 292 292 293 293 294 295 296 296 296 296 297 296 296 296 296 296 296 296 296 296 295 294 293 293 292 291 290 290 289
280 280 281 283 284 285 286 286 288 290 290 289 290 291 292 292 293 294 296 296 296 296 296 296 295 295 296 296 297 297 296 296 296 296 295 294 294 293 292 291 290 290 290
280 280 282 284 286 287 288 288 289 290 290 290 290 291 292 294 294 294 294 294 295 295 295 295 296 296 296 296 296 296 297 296 296 296 295 294 294 293 292 291 290 290 290
282 283 285 287 288 289 289 290 291 291 292 292 292 292 293 294 294 294 294 294 295 295 295 295 295 296 297 297 297 297 297 297 296 295 295 295 294 294 292 292 291 291 290